FW7988 Weather Reports


Display with metric or nautical units.
time (UTC)temp
F
wind
direction
speed
MPH
gust
MPH
rain 1hr
in
rain 24hr
in
rain mn
in
humidity
%
barometer
mb
20260505083040 69 190 8.0 13.0 0.00 0.00 0.00 89
20260505082536 69 168 10.0 14.0 0.00 0.00 0.00 89
20260505082033 69 225 13.0 17.0 0.00 0.00 0.00 89
20260505081529 69 183 8.0 15.0 0.00 0.00 0.00 89
20260505081027 69 191 7.0 17.0 0.00 0.00 0.00 89
20260505080523 69 202 10.0 15.0 0.00 0.00 0.00 89
20260505080020 69 191 9.0 16.0 0.00 0.00 0.00 89
20260505075516 69 191 12.0 15.0 0.00 0.00 0.00 89
20260505075013 69 210 9.0 14.0 0.00 0.00 0.00 89
20260505074510 69 209 5.0 13.0 0.00 0.00 0.00 89
20260505074007 69 205 3.0 14.0 0.00 0.00 0.00 88
20260505073504 69 235 6.0 15.0 0.00 0.00 0.00 88
20260505073002 69 199 10.0 21.0 0.00 0.00 0.00 88
20260505072458 69 188 10.0 17.0 0.00 0.00 0.00 88
20260505071954 69 171 8.0 16.0 0.00 0.00 0.00 88
20260505071450 69 166 11.0 13.0 0.00 0.00 0.00 88
20260505070948 69 186 7.0 14.0 0.00 0.00 0.00 88
20260505070444 69 213 15.0 24.0 0.00 0.00 0.00 88
20260505065940 69 188 11.0 15.0 0.00 0.00 0.00 88
20260505065437 70 223 7.0 15.0 0.00 0.00 0.00 88
20260505064933 70 179 11.0 15.0 0.00 0.00 0.00 88
20260505064431 70 166 10.0 20.0 0.00 0.00 0.00 88
20260505063929 70 194 7.0 22.0 0.00 0.00 0.00 87
20260505063425 70 200 8.0 17.0 0.00 0.00 0.00 87
20260505062922 70 207 9.0 22.0 0.00 0.00 0.00 87
20260505062419 70 189 11.0 16.0 0.00 0.00 0.00 87
20260505061915 70 176 11.0 22.0 0.00 0.00 0.00 87
20260505061414 70 177 8.0 16.0 0.00 0.00 0.00 87
20260505060911 70 194 9.0 16.0 0.00 0.00 0.00 87
20260505060408 70 193 8.0 16.0 0.00 0.00 0.00 86
20260505055904 70 202 15.0 18.0 0.00 0.00 0.00 86
20260505055400 70 184 10.0 23.0 0.00 0.00 0.00 86
20260505054857 70 207 11.0 17.0 0.00 0.00 0.00 86
20260505054354 70 190 13.0 20.0 0.00 0.00 0.00 86
20260505053853 70 229 11.0 15.0 0.00 0.00 0.00 86
20260505053349 70 205 8.0 16.0 0.00 0.00 0.00 86
20260505052846 70 179 7.0 16.0 0.00 0.00 0.00 86
20260505052343 70 170 8.0 10.0 0.00 0.00 0.00 86
20260505051840 70 217 12.0 20.0 0.00 0.00 0.00 86
20260505051337 70 207 11.0 17.0 0.00 0.00 0.00 86
20260505050835 70 209 11.0 16.0 0.00 0.00 0.00 86
20260505050334 70 197 14.0 18.0 0.00 0.00 0.00 86
20260505041301 71 183 10.0 13.0 0.00 0.00 0.00 85
20260505040758 71 180 7.0 14.0 0.00 0.00 0.00 85
20260505040255 71 156 9.0 13.0 0.00 0.00 0.00 84
20260505035752 71 201 4.0 16.0 0.00 0.00 0.00 84
20260505035248 71 171 9.0 14.0 0.00 0.00 0.00 83
20260505034745 71 179 12.0 20.0 0.00 0.00 0.00 83
20260505034242 72 145 8.0 17.0 0.00 0.00 0.00 82
20260505033738 72 171 11.0 15.0 0.00 0.00 0.00 82
20260505033236 72 234 6.0 11.0 0.00 0.00 0.00 82
20260505032734 72 171 5.0 13.0 0.00 0.00 0.00 81
20260505032230 72 170 9.0 15.0 0.00 0.00 0.00 81
20260505031727 72 161 8.0 11.0 0.00 0.00 0.00 81
20260505031223 72 167 5.0 11.0 0.00 0.00 0.00 81
20260505030721 72 179 5.0 9.0 0.00 0.00 0.00 80
20260505030217 72 214 3.0 7.0 0.00 0.00 0.00 80
20260505025713 72 196 9.0 11.0 0.00 0.00 0.00 80
20260505025211 73 214 7.0 8.0 0.00 0.00 0.00 80
20260505024709 73 191 5.0 9.0 0.00 0.00 0.00 79
20260505024206 73 138 6.0 14.0 0.00 0.00 0.00 79
20260505023703 73 178 6.0 10.0 0.00 0.00 0.00 79
20260505023200 73 180 4.0 6.0 0.00 0.00 0.00 78
20260505022658 73 167 7.0 9.0 0.00 0.00 0.00 78
20260505022154 73 187 6.0 8.0 0.00 0.00 0.00 77
20260505021651 73 185 5.0 9.0 0.00 0.00 0.00 77
20260505021148 73 185 6.0 9.0 0.00 0.00 0.00 76
20260505020644 74 192 7.0 9.0 0.00 0.00 0.00 76
20260505020140 74 178 7.0 8.0 0.00 0.00 0.00 75
20260505015637 74 183 5.0 10.0 0.00 0.00 0.00 75
20260505015133 74 160 5.0 9.0 0.00 0.00 0.00 74
20260505014630 74 181 5.0 6.0 0.00 0.00 0.00 74
20260505014127 74 164 5.0 8.0 0.00 0.00 0.00 73
20260505013625 75 153 5.0 9.0 0.00 0.00 0.00 73
20260505013122 75 197 6.0 8.0 0.00 0.00 0.00 72
20260505012620 75 185 6.0 8.0 0.00 0.00 0.00 72
20260505012117 75 172 7.0 10.0 0.00 0.00 0.00 71
20260505011612 76 182 4.0 10.0 0.00 0.00 0.00 70
20260505011110 76 179 7.0 9.0 0.00 0.00 0.00 70
20260505010605 76 215 6.0 11.0 0.00 0.00 0.00 69
20260505005558 77 180 7.0 9.0 0.00 0.00 0.00 66
20260505005055 77 180 8.0 16.0 0.00 0.00 0.00 66
20260505004552 77 192 8.0 11.0 0.00 0.00 0.00 65
20260505004049 77 199 5.0 15.0 0.00 0.00 0.00 65
20260505003546 78 183 7.0 14.0 0.00 0.00 0.00 64
20260505003044 78 207 12.0 17.0 0.00 0.00 0.00 63
20260505002544 78 194 7.0 10.0 0.00 0.00 0.00 64
20260505002043 78 179 11.0 16.0 0.00 0.00 0.00 63
20260505001540 78 191 11.0 17.0 0.00 0.00 0.00 63
20260505001037 78 188 12.0 17.0 0.00 0.00 0.00 62
20260505000535 79 182 12.0 21.0 0.00 0.00 0.00 62
20260505000032 79 192 9.0 15.0 0.00 0.00 0.00 62
20260504235529 79 137 7.0 10.0 0.00 0.00 0.00 61
20260504235025 79 215 6.0 10.0 0.00 0.00 0.00 62
20260504234522 79 221 13.0 16.0 0.00 0.00 0.00 61
20260504234019 79 159 12.0 21.0 0.00 0.00 0.00 61
20260504233514 79 195 7.0 14.0 0.00 0.00 0.00 61
20260504233012 79 198 14.0 18.0 0.00 0.00 0.00 61
20260504232509 79 183 9.0 16.0 0.00 0.00 0.00 61
20260504232006 80 209 11.0 24.0 0.00 0.00 0.00 61
20260504231503 79 207 9.0 15.0 0.00 0.00 0.00 62
20260504230959 79 180 13.0 15.0 0.00 0.00 0.00 61
20260504230455 79 171 13.0 20.0 0.00 0.00 0.00 61
20260504225954 79 193 11.0 14.0 0.00 0.00 0.00 60
20260504225451 80 215 7.0 13.0 0.00 0.00 0.00 59
20260504224948 80 195 10.0 14.0 0.00 0.00 0.00 59
20260504224444 81 186 7.0 18.0 0.00 0.00 0.00 59
20260504223941 80 189 7.0 16.0 0.00 0.00 0.00 60
20260504223437 80 205 14.0 21.0 0.00 0.00 0.00 60
20260504222933 80 169 11.0 21.0 0.00 0.00 0.00 60
20260504222431 80 167 8.0 15.0 0.00 0.00 0.00 60
20260504221929 80 142 9.0 14.0 0.00 0.00 0.00 60
20260504221425 80 176 12.0 17.0 0.00 0.00 0.00 59
20260504220922 80 164 12.0 18.0 0.00 0.00 0.00 60
20260504220419 81 169 9.0 17.0 0.00 0.00 0.00 59
20260504215916 80 190 15.0 20.0 0.00 0.00 0.00 59
20260504215413 81 191 15.0 22.0 0.00 0.00 0.00 58
20260504214909 80 178 8.0 16.0 0.00 0.00 0.00 59
20260504214406 81 156 9.0 15.0 0.00 0.00 0.00 58
20260504213903 82 235 10.0 15.0 0.00 0.00 0.00 58
20260504213358 81 163 9.0 16.0 0.00 0.00 0.00 59
20260504212856 80 191 9.0 16.0 0.00 0.00 0.00 58
20260504212352 80 190 9.0 20.0 0.00 0.00 0.00 59
20260504211850 80 204 11.0 18.0 0.00 0.00 0.00 58
20260504211345 80 186 15.0 21.0 0.00 0.00 0.00 59
20260504210843 81 181 15.0 22.0 0.00 0.00 0.00 57
20260504210340 81 172 11.0 18.0 0.00 0.00 0.00 57
20260504205837 82 174 15.0 25.0 0.00 0.00 0.00 56
20260504205335 81 201 8.0 18.0 0.00 0.00 0.00 57
20260504204833 81 157 12.0 17.0 0.00 0.00 0.00 56
20260504204331 81 186 10.0 20.0 0.00 0.00 0.00 57
20260504203830 82 171 8.0 18.0 0.00 0.00 0.00 56
20260504203327 81 189 7.0 20.0 0.00 0.00 0.00 56
20260504202822 81 154 10.0 22.0 0.00 0.00 0.00 56
20260504202320 81 165 11.0 20.0 0.00 0.00 0.00 57
20260504201816 81 201 9.0 17.0 0.00 0.00 0.00 57
20260504201314 82 136 9.0 15.0 0.00 0.00 0.00 55
20260504200811 82 150 8.0 16.0 0.00 0.00 0.00 55
20260504200308 81 154 9.0 15.0 0.00 0.00 0.00 57
20260504195803 80 225 5.0 13.0 0.00 0.00 0.00 58
20260504195259 81 184 11.0 17.0 0.00 0.00 0.00 57
20260504194756 80 214 11.0 15.0 0.00 0.00 0.00 59
20260504194253 80 218 7.0 20.0 0.00 0.00 0.00 58
20260504193749 80 190 9.0 15.0 0.00 0.00 0.00 59
20260504193247 80 153 5.0 16.0 0.00 0.00 0.00 59
20260504192745 79 204 9.0 15.0 0.00 0.00 0.00 59
20260504192243 79 221 8.0 18.0 0.00 0.00 0.00 59
20260504191741 79 116 10.0 17.0 0.00 0.00 0.00 59
20260504191238 79 196 6.0 14.0 0.00 0.00 0.00 60
20260504190733 79 187 11.0 14.0 0.00 0.00 0.00 60
20260504190230 78 167 10.0 17.0 0.00 0.00 0.00 60
20260504185726 78 144 11.0 17.0 0.00 0.00 0.00 61
20260504185223 78 199 7.0 18.0 0.00 0.00 0.00 60
20260504184719 79 203 11.0 14.0 0.00 0.00 0.00 60
20260504184215 78 190 12.0 20.0 0.00 0.00 0.00 60
20260504183711 78 182 12.0 15.0 0.00 0.00 0.00 61
20260504183208 78 213 11.0 16.0 0.00 0.00 0.00 60
20260504182706 77 209 5.0 16.0 0.00 0.00 0.00 62
20260504182203 77 222 10.0 15.0 0.00 0.00 0.00 62
20260504181701 77 224 9.0 14.0 0.00 0.00 0.00 62
20260504181158 77 176 9.0 17.0 0.00 0.00 0.00 61
20260504180657 76 196 6.0 15.0 0.00 0.00 0.00 64
20260504180155 77 200 6.0 14.0 0.00 0.00 0.00 63
20260504175652 77 192 10.0 15.0 0.00 0.00 0.00 63
20260504175149 77 123 4.0 15.0 0.00 0.00 0.00 64
20260504174647 76 191 7.0 10.0 0.00 0.00 0.00 65
20260504174144 75 181 11.0 17.0 0.00 0.00 0.00 65
20260504173641 76 196 10.0 16.0 0.00 0.00 0.00 63
20260504173138 75 190 6.0 11.0 0.00 0.00 0.00 64
20260504172635 75 212 13.0 18.0 0.00 0.00 0.00 64
20260504172131 74 193 13.0 16.0 0.00 0.00 0.00 65
20260504171627 74 185 14.0 21.0 0.00 0.00 0.00 65
20260504171125 73 208 12.0 15.0 0.00 0.00 0.00 69
20260504170621 73 181 10.0 17.0 0.00 0.00 0.00 69
20260504170119 73 144 8.0 16.0 0.00 0.00 0.00 69
20260504151004 68 238 7.0 15.0 0.00 0.00 0.00 78
20260504150501 68 205 11.0 17.0 0.00 0.00 0.00 77
20260504140927 66 182 7.0 13.0 0.00 0.00 0.00 77
20260504140424 66 183 7.0 9.0 0.00 0.00 0.00 77
20260504130349 62 167 6.0 11.0 0.00 0.00 0.00 82
20260504120312 60 214 8.0 9.0 0.00 0.00 0.00 84
20260504110236 60 187 5.0 8.0 0.00 0.00 0.00 84
20260504100154 60 168 1.0 5.0 0.00 0.00 0.00 84
20260504090116 60 152 3.0 6.0 0.00 0.00 0.00 82